Wind_Speed
13 15 16 15 14 13 13 12 12 12 13 13 14 14 13 13 13 14 14 13 12 11 10 9 7 6 5 6 6 6 5 5 5 4 4 4 3 2 2 1 1 2 2 2 3 4 4 4 4 4 4 3 2 2 2 3 3 4 5 6 7 7 8 8 9 9 9 10 10 10 11 11 11 11 11 11 12 12 12 13 13 13 13 14 14 14
13 15 15 14 13 13 12 12 12 11 12 13 13 14 14 14 14 15 15 15 14 12 11 9 8 7 6 6 6 6 6 5 5 5 5 4 4 3 3 2 2 2 2 3 3 4 4 5 5 5 4 4 4 3 3 3 4 4 5 6 6 7 7 8 8 9 9 10 10 10 10 11 11 11 11 11 11 12 12 13 13 13 13 14 14 14
14 14 14 13 12 11 12 12 12 11 12 13 13 13 13 13 14 15 15 15 15 14 13 11 9 8 6 6 6 6 6 6 6 5 5 5 4 4 3 3 3 3 3 3 4 4 5 5 5 5 5 5 4 4 4 4 4 5 6 6 7 7 7 8 8 9 9 10 10 10 10 11 11 11 11 11 11 12 12 13 13 13 13 13 14 14
14 13 14 13 12 11 11 12 12 12 13 13 13 13 13 13 13 14 15 14 14 13 13 12 11 9 7 6 7 7 6 6 6 6 6 5 5 4 4 4 4 4 4 4 4 5 5 5 5 5 5 5 5 5 4 4 4 5 6 7 7 8 8 8 8 9 9 10 10 10 10 10 11 11 11 11 12 12 12 13 13 13 13 14 14 14
13 13 14 14 12 10 11 12 14 14 14 14 14 13 12 12 13 14 14 13 13 13 12 12 11 10 9 8 8 7 6 6 6 6 6 5 5 5 4 4 5 5 5 5 5 5 6 6 6 6 6 5 5 5 5 4 5 5 6 6 7 8 8 8 8 9 9 9 10 10 10 10 11 11 11 12 12 12 12 13 13 14 14 14 14 14
13 13 14 13 12 11 12 13 14 14 15 14 13 13 13 13 13 13 12 12 12 12 12 12 11 11 10 9 8 7 6 6 5 5 5 5 5 5 5 5 5 6 6 6 6 6 6 6 6 6 6 6 5 5 5 5 5 5 6 6 7 7 8 8 8 9 9 9 10 10 10 10 11 11 11 12 12 12 13 13 13 14 14 14 14 14
13 13 14 13 12 12 12 13 13 14 14 14 13 12 12 12 12 12 12 12 12 12 12 11 11 10 9 8 7 6 6 5 5 5 5 5 5 5 5 6 6 6 6 6 6 6 7 7 7 7 7 6 6 6 5 5 5 5 5 6 7 7 8 8 8 9 9 9 10 10 10 10 11 11 11 11 12 12 13 13 13 14 14 14 14 14
14 14 14 13 12 12 12 12 12 13 13 13 13 12 12 12 11 11 12 12 11 11 10 10 9 9 8 7 6 6 5 5 5 5 5 6 6 6 6 6 6 6 6 6 6 6 7 7 7 7 7 6 6 6 6 6 5 5 5 6 7 7 8 8 9 9 9 10 10 10 10 11 11 11 11 12 12 12 13 13 13 14 14 14 14 15
15 14 14 14 13 13 12 12 13 13 13 12 12 12 12 11 11 11 11 11 11 10 9 8 8 8 7 7 6 6 6 6 5 6 6 6 6 6 7 7 7 7 7 6 6 6 7 7 7 7 6 6 6 6 6 6 6 5 5 6 7 7 8 8 8 9 9 10 10 10 11 11 11 11 12 12 12 13 13 13 13 14 14 14 14 15
15 14 13 13 13 13 11 11 13 15 15 12 10 11 11 12 11 11 10 10 10 10 9 8 7 7 6 6 6 6 6 6 6 6 7 7 7 7 7 7 7 7 7 6 6 6 6 6 6 6 6 6 6 6 6 6 5 5 5 6 6 7 7 8 8 9 9 9 10 10 11 11 11 12 12 12 12 13 13 13 13 14 14 14 14 15
13 14 13 12 12 11 10 11 14 16 16 13 10 10 10 11 11 10 9 9 9 10 9 9 8 7 6 6 6 6 5 5 6 7 7 7 7 7 7 7 7 7 7 6 6 6 6 6 6 6 5 6 6 6 6 6 5 5 5 5 6 7 7 8 8 9 9 9 10 10 11 11 11 12 12 12 13 13 13 13 14 14 14 14 14 15
12 12 12 11 11 10 10 11 13 15 15 12 9 8 9 10 11 10 9 9 9 9 9 9 9 8 8 7 6 5 5 5 5 5 6 7 7 7 7 7 7 7 6 6 6 6 6 6 6 5 5 6 6 6 6 6 5 5 5 5 6 7 7 8 8 9 9 9 9 10 10 11 11 12 12 12 13 13 13 13 14 14 14 14 14 15
12 11 11 11 11 10 10 11 12 13 12 11 10 9 10 12 13 11 8 8 9 9 9 9 9 9 8 7 6 6 5 4 4 5 5 6 7 7 7 6 5 5 5 6 6 6 6 6 6 6 6 6 6 6 6 6 6 5 5 6 6 7 7 8 9 9 9 9 9 10 10 11 11 12 12 13 13 13 13 13 14 14 14 14 15 15
11 11 11 10 10 10 11 12 12 11 11 11 10 10 11 14 15 13 9 8 8 10 10 9 8 8 8 7 7 6 6 5 4 4 4 6 8 8 7 6 5 5 5 5 5 6 7 6 6 6 6 6 7 7 6 6 6 5 5 6 6 7 8 8 8 9 9 9 10 10 10 11 11 12 12 13 13 13 13 13 14 14 14 14 15 15
12 12 11 11 10 10 11 12 12 12 11 11 10 10 12 14 15 13 9 8 9 10 10 8 7 7 8 8 7 7 6 5 4 3 3 6 7 8 8 7 6 5 5 5 5 7 7 7 7 7 7 7 7 8 7 7 6 6 5 6 7 7 8 8 8 9 9 9 10 10 11 11 12 12 12 13 13 13 13 13 14 14 14 14 14 15
12 12 12 11 11 11 11 12 12 11 11 11 12 12 12 13 13 12 9 8 9 10 9 7 6 5 6 8 8 8 7 6 5 4 3 5 7 8 8 7 6 4 5 5 5 6 7 7 7 7 8 8 9 9 9 8 8 7 6 6 7 7 8 8 8 8 9 9 10 10 11 11 12 12 12 13 13 13 13 13 13 14 14 14 14 15
13 12 11 11 11 11 12 12 11 11 12 13 13 13 13 13 12 11 9 9 9 9 8 7 6 4 4 6 8 9 8 6 5 4 4 4 6 8 8 8 6 4 4 5 5 6 7 7 8 8 9 9 10 10 10 9 8 7 6 6 7 8 8 8 8 8 9 9 10 10 11 11 12 12 12 12 13 13 13 13 13 14 14 14 15 15
12 12 11 11 11 11 13 13 12 12 14 14 14 14 12 12 12 12 10 10 9 8 7 7 6 5 4 4 6 9 8 7 5 4 3 4 6 7 8 8 7 5 4 4 5 6 7 8 8 9 9 10 10 10 10 10 9 7 6 7 7 8 8 8 8 8 9 9 10 10 11 11 12 12 12 12 13 13 13 13 14 14 14 14 15 15
12 12 11 11 11 13 14 14 14 14 15 15 15 14 13 12 12 12 11 10 9 8 7 6 5 4 3 4 5 8 8 7 5 4 3 3 5 7 7 7 6 5 4 4 5 6 7 8 9 10 10 10 10 10 10 10 9 8 7 7 8 8 8 8 8 8 9 9 9 10 11 11 12 12 12 12 13 13 13 13 14 14 14 15 15 15
13 12 12 12 13 14 14 15 16 17 17 17 17 16 14 13 12 11 10 10 9 8 8 6 5 4 4 4 5 7 8 7 5 3 3 3 5 6 6 6 5 5 4 5 5 6 7 9 9 10 10 11 11 11 10 10 9 8 7 7 8 8 8 8 8 9 9 9 10 10 11 11 12 12 12 12 13 13 13 14 14 14 15 15 15 16
14 13 13 14 15 15 15 16 17 18 19 19 18 16 14 13 11 10 10 10 9 8 8 6 5 5 6 5 5 7 7 6 4 2 3 3 4 5 6 5 5 5 5 5 6 7 8 9 10 10 11 11 11 11 10 9 8 6 6 7 7 8 8 8 8 9 9 9 10 10 11 11 12 12 12 12 13 13 14 14 14 15 15 15 16 16
16 16 16 16 16 16 17 18 19 19 19 19 18 15 13 12 11 10 10 10 9 8 7 6 6 7 8 7 7 8 7 6 4 3 2 2 3 4 6 5 4 5 6 6 6 7 8 9 9 10 10 10 11 11 10 8 6 5 5 6 7 8 8 8 8 9 9 9 10 10 11 11 12 12 12 12 13 13 14 15 15 16 16 16 16 17
17 18 18 17 17 17 18 19 20 19 19 18 16 15 14 12 12 11 11 10 9 8 8 8 9 9 9 8 7 7 6 5 5 3 2 2 2 3 6 5 5 6 7 7 8 8 8 8 9 9 10 10 10 11 11 8 5 4 6 7 7 8 8 8 8 8 9 9 10 10 11 11 12 12 12 13 13 14 14 15 16 17 17 17 18 18
17 18 19 18 17 17 18 19 19 19 19 17 15 14 14 13 13 12 12 11 11 10 10 10 9 7 6 6 5 5 5 4 3 3 2 2 2 2 4 5 6 6 7 7 8 9 8 8 8 8 9 9 10 12 11 8 5 6 7 7 7 7 7 7 8 8 9 9 9 10 11 11 11 12 12 13 13 14 15 16 16 17 18 19 19 20
15 16 17 17 17 17 17 18 19 19 19 18 17 16 15 15 14 13 13 12 12 11 10 8 6 4 4 4 4 4 5 4 3 3 3 2 2 2 4 5 6 6 7 8 9 9 8 7 7 7 7 8 10 12 12 9 6 7 8 8 7 7 7 7 7 8 8 9 9 10 10 11 11 12 12 13 13 14 15 16 17 18 18 19 20 20
14 16 16 16 15 15 16 17 18 18 18 18 17 16 15 14 13 13 12 12 11 11 9 6 5 4 4 4 4 4 5 4 3 3 3 2 2 2 3 5 6 6 7 8 9 8 8 7 6 6 6 7 9 12 11 9 7 8 9 8 7 6 6 7 7 8 8 9 9 10 10 11 11 12 12 13 13 14 15 16 17 18 19 20 20 20
16 17 17 16 16 16 16 16 16 16 15 15 15 14 14 13 13 12 11 11 11 10 7 5 5 5 4 4 4 4 5 4 4 3 4 3 2 2 2 4 5 6 7 8 8 8 7 6 5 5 6 8 10 11 10 8 8 10 10 8 7 6 6 7 8 8 8 9 9 10 10 11 11 12 12 13 13 14 15 16 17 18 19 19 19 19
16 17 16 16 16 15 15 15 14 13 13 12 12 12 12 12 10 9 8 10 10 9 6 5 4 4 4 4 4 4 4 4 4 4 3 2 1 2 2 4 5 6 7 7 8 8 7 6 5 6 8 9 10 10 9 8 10 11 10 8 7 6 7 8 8 9 9 9 10 10 10 11 11 12 12 13 13 14 14 15 16 17 18 18 18 17
15 15 15 14 14 13 12 11 11 11 10 10 10 11 11 10 8 7 8 10 9 7 5 4 4 4 3 3 3 3 3 4 5 4 2 1 1 2 2 3 4 5 6 6 6 6 5 5 6 7 8 9 9 9 8 10 11 11 9 8 7 7 7 8 9 10 10 10 10 10 11 11 11 12 12 13 13 13 14 14 15 16 17 17 17 16
15 14 14 14 14 13 11 10 9 9 9 9 9 9 9 9 7 7 8 8 8 6 5 4 4 4 3 3 3 2 3 4 5 5 2 1 1 2 2 2 3 3 4 4 4 3 3 4 5 5 6 7 7 8 10 11 12 10 9 8 8 8 9 10 11 11 11 11 11 11 11 12 12 12 12 13 13 13 13 14 14 15 16 16 16 16
14 14 15 15 15 14 13 12 11 10 10 10 9 8 8 8 7 7 7 7 6 6 5 5 5 4 4 3 2 2 2 5 6 6 3 2 2 2 1 1 2 3 3 3 2 2 1 2 3 4 5 6 8 10 12 12 11 10 9 9 10 11 11 12 13 13 13 13 13 13 13 13 13 13 13 13 13 13 13 13 13 14 15 15 15 16
14 14 15 15 15 15 15 15 14 13 13 12 11 9 8 7 7 6 6 6 6 6 5 5 5 5 5 4 2 1 2 5 7 6 4 3 2 2 2 2 2 2 3 2 2 2 2 2 2 3 5 7 9 11 12 11 10 10 10 10 11 11 12 13 14 15 15 15 15 15 15 15 15 15 15 14 14 14 14 14 13 14 14 14 15 16
14 14 14 14 14 15 15 15 14 14 13 13 12 10 9 7 7 6 6 6 6 6 6 6 5 6 5 4 3 2 2 4 7 7 5 3 2 2 2 2 2 2 3 3 3 4 4 4 4 5 6 8 8 9 9 10 10 10 10 10 11 11 12 13 14 15 15 15 16 16 16 16 16 16 16 16 15 15 15 15 14 14 14 14 15 16
13 13 13 13 13 13 14 14 14 13 13 12 11 11 9 8 7 7 7 6 6 7 7 6 5 5 5 4 4 3 3 4 6 7 5 4 3 2 2 2 3 3 3 3 4 4 5 6 6 7 7 8 8 8 8 8 9 9 9 10 11 12 13 13 13 14 15 15 16 16 17 17 17 17 17 16 16 16 16 16 15 14 14 14 14 15
11 11 11 11 11 12 12 13 13 13 12 12 11 11 10 9 8 8 8 7 7 7 7 7 6 6 5 4 4 3 3 4 6 7 5 4 4 3 3 3 3 3 3 4 4 4 5 6 6 7 7 7 7 7 7 7 7 8 9 11 12 12 13 13 13 13 14 14 15 15 16 16 17 17 16 16 17 17 17 17 16 15 14 14 14 15
9 9 9 9 9 9 10 10 11 11 11 11 11 11 10 10 9 9 8 8 8 7 7 7 8 7 7 6 5 4 4 4 6 7 6 6 5 4 3 4 4 4 4 4 4 4 5 6 6 7 7 7 7 6 5 5 6 7 9 10 11 11 12 13 13 13 13 13 14 14 15 15 15 16 17 17 17 18 18 17 17 16 15 15 15 15
8 8 8 9 9 8 8 9 9 10 10 10 11 10 10 10 9 9 8 8 8 7 7 7 7 8 8 8 7 6 6 6 6 7 7 7 7 6 5 5 5 5 5 5 5 5 5 6 7 7 7 7 6 6 5 5 6 7 8 9 10 11 12 12 12 12 12 13 13 14 14 14 15 16 17 18 18 18 17 16 15 15 15 15 16 16
7 7 8 9 9 9 8 8 8 9 9 9 9 9 10 9 9 9 8 8 7 7 7 7 7 7 7 8 8 8 8 8 8 8 8 9 8 8 7 7 7 7 6 6 6 6 6 6 6 7 7 7 7 7 7 7 8 8 9 10 10 11 11 11 10 11 11 12 13 13 13 14 15 16 16 17 17 16 15 14 14 15 15 16 17 17
7 7 7 9 10 10 9 8 7 8 8 8 9 9 9 9 9 8 8 7 7 7 7 7 7 7 8 8 8 8 8 9 9 9 9 10 10 10 9 9 8 8 7 7 7 7 6 6 7 7 7 8 8 8 8 8 8 9 9 10 11 10 9 9 9 10 11 12 13 13 13 13 13 14 15 15 14 14 15 15 15 15 15 16 16 17
7 7 7 8 9 9 9 8 8 9 9 10 10 10 9 9 8 8 8 8 7 7 7 7 8 8 8 8 8 8 9 9 9 9 10 10 11 11 11 10 9 9 8 8 8 8 8 8 8 9 9 9 9 9 9 9 9 9 10 10 10 9 8 9 10 11 12 12 12 12 12 12 13 13 13 14 14 14 15 15 16 16 16 15 15 15
7 6 7 7 8 8 9 9 10 10 10 10 9 9 9 9 8 8 8 8 8 8 8 8 8 8 9 10 10 10 10 10 10 10 11 11 11 11 11 11 11 10 9 9 9 9 9 9 9 10 10 10 10 11 11 11 11 10 10 10 11 11 11 11 11 11 10 10 10 10 11 12 13 13 13 13 14 15 15 16 16 17 16 15 14 14
7 6 6 7 8 9 9 10 9 9 9 9 9 9 9 9 8 8 7 7 7 7 8 7 7 6 7 8 9 10 11 11 12 12 12 12 12 12 12 12 12 11 10 10 10 10 11 10 10 10 10 10 10 11 12 12 11 11 10 11 12 13 13 11 9 8 8 8 10 11 11 12 13 13 13 14 15 16 16 17 17 17 16 15 14 14
7 7 7 7 9 9 9 9 8 8 9 9 9 9 10 9 9 8 7 6 6 6 7 7 7 6 6 7 7 8 10 12 12 12 12 12 12 12 12 12 12 12 11 10 10 10 11 11 11 11 11 10 10 11 12 12 12 12 11 11 11 11 10 9 8 8 8 10 11 12 12 12 12 13 13 14 15 16 17 17 16 16 15 15 14 15
7 7 8 8 9 9 8 8 8 9 9 9 9 9 10 10 10 8 8 7 6 6 7 7 7 7 7 7 7 7 7 10 11 11 11 11 12 12 12 12 12 13 12 12 11 10 9 10 10 11 11 10 10 11 12 13 13 12 12 11 11 11 11 11 11 11 11 11 12 11 11 11 12 13 14 15 15 16 16 15 15 14 15 15 15 15
7 8 9 9 9 9 8 8 9 9 9 9 9 9 11 11 11 10 8 7 7 7 7 7 6 6 6 6 5 5 5 6 8 9 9 10 11 11 12 12 12 13 13 13 13 12 10 10 10 10 10 10 11 12 13 13 13 13 12 12 11 12 13 12 12 12 12 12 11 11 11 11 13 14 15 15 15 15 15 15 15 15 15 14 14 14
9 9 10 10 9 9 9 9 9 9 10 9 9 9 11 12 11 11 9 8 7 6 7 6 6 5 5 5 4 4 4 4 5 6 7 8 9 10 11 12 12 13 13 14 14 14 13 12 11 11 10 10 12 13 13 13 13 13 12 12 11 11 11 11 11 11 11 11 11 12 12 12 13 14 14 15 16 16 15 15 15 15 15 14 14 14
9 9 10 10 10 9 9 9 10 10 11 10 10 10 12 12 12 11 10 9 8 7 6 6 6 6 6 5 4 4 4 4 4 4 4 5 6 8 9 10 11 12 13 13 14 14 15 15 15 14 12 11 12 12 13 13 12 12 12 11 10 10 11 11 11 11 11 11 11 12 12 13 13 14 15 16 16 16 15 15 14 14 14 14 14 14
9 9 9 10 10 9 9 10 10 11 10 10 10 10 12 13 12 11 10 9 8 7 6 6 6 6 6 5 5 5 4 4 4 4 4 4 5 6 7 8 9 9 10 11 12 13 14 15 16 16 15 14 13 12 12 12 11 10 10 10 10 10 11 11 11 11 11 11 12 12 13 13 13 14 15 16 17 16 16 15 15 14 14 14 14 14
10 9 9 10 10 10 10 10 11 11 10 9 9 10 12 13 12 11 9 8 8 7 7 6 6 6 5 5 5 5 5 5 4 4 4 4 4 5 5 6 6 7 7 9 10 11 13 14 15 16 16 16 15 14 13 12 11 10 10 10 10 10 11 11 11 11 10 11 12 12 13 13 13 14 15 16 17 17 17 16 15 14 14 13 13 13
10 10 9 10 10 10 10 10 11 11 10 10 9 9 9 11 11 11 9 8 7 7 7 6 6 6 5 5 5 4 4 4 4 4 4 4 4 4 4 4 5 5 5 6 7 8 9 11 13 14 15 15 15 15 14 12 10 9 9 9 9 10 10 11 11 11 11 11 12 13 14 14 14 14 14 15 16 17 17 17 16 14 13 13 13 13
11 11 10 10 10 10 10 10 11 11 11 10 9 9 9 9 10 10 9 8 8 7 7 6 6 6 6 5 5 5 5 4 4 4 4 4 4 4 4 4 4 4 4 4 5 5 5 6 8 10 12 13 12 12 12 12 10 9 9 9 9 9 10 10 11 11 12 12 13 13 14 14 14 13 13 14 15 16 17 16 15 14 13 13 13 14
Wind_Direction
168 172 173 172 168 164 164 168 169 169 170 172 175 177 178 176 174 172 171 167 163 158 153 144 140 145 156 166 168 167 169 172 175 177 179 179 183 192 209 235 269 291 305 315 321 323 326 329 331 335 338 341 347 358 11 11 8 7 6 6 7 7 7 6 5 4 3 2 1 1 0 360 359 358 357 356 356 355 356 356 355 354 353 352 350 349
169 171 171 171 169 166 165 167 167 166 167 169 172 174 174 173 172 172 173 173 171 167 160 150 142 142 152 170 179 179 179 184 188 191 194 197 202 209 221 239 261 279 292 301 307 313 317 321 326 329 332 335 338 341 347 354 356 355 354 354 357 0 2 3 2 2 1 0 359 359 359 358 357 356 355 354 354 354 354 354 354 353 352 351 349 347
166 168 170 171 170 168 167 166 165 166 168 168 168 169 169 169 171 173 175 178 179 178 172 163 154 149 155 175 187 190 190 193 196 199 202 206 211 217 226 240 256 271 281 290 296 303 309 315 320 324 328 331 332 335 339 344 349 351 350 350 352 355 359 0 360 359 358 358 357 357 357 356 355 353 352 352 352 352 352 352 352 351 351 350 348 346
164 165 169 170 169 169 169 167 167 168 169 167 164 163 165 168 171 174 178 180 182 183 182 177 171 165 168 183 197 202 201 202 204 206 208 212 217 224 233 244 257 268 277 283 290 296 303 310 316 321 324 327 328 330 332 337 342 346 348 348 350 354 357 357 357 356 356 355 355 355 354 354 353 352 351 351 351 351 351 351 350 350 349 348 347 346
165 166 168 167 166 166 169 170 170 170 168 164 161 160 164 169 172 175 177 180 183 185 187 187 185 183 185 195 206 213 215 216 216 218 219 223 229 236 244 254 263 270 277 282 287 292 298 306 311 317 319 321 322 322 324 328 334 340 344 346 348 351 355 355 353 352 352 352 352 352 352 351 351 351 350 350 350 350 350 349 348 348 347 347 346 345
164 166 168 166 164 164 166 170 171 169 165 162 161 163 166 170 172 172 173 177 182 187 190 191 192 195 198 205 213 220 226 229 231 232 233 238 243 250 257 264 269 275 280 284 288 293 298 303 309 313 315 316 314 314 315 317 324 332 339 342 346 349 352 352 350 349 349 349 349 349 349 349 349 349 349 349 349 349 348 348 347 346 346 345 344 343
161 164 166 166 166 165 164 166 169 167 161 159 161 164 167 169 170 170 172 176 182 187 191 193 196 200 205 210 215 222 228 233 237 240 242 246 252 257 264 269 274 279 284 288 291 295 299 303 307 310 312 311 309 307 306 308 315 325 334 340 344 347 349 348 348 347 347 347 346 346 346 346 347 347 347 347 347 347 347 346 345 344 344 343 342 342
157 162 165 165 164 163 163 165 167 166 163 161 160 160 161 164 167 170 174 177 180 183 185 190 195 200 203 206 209 213 219 226 233 239 242 248 253 258 263 268 274 280 284 290 294 298 301 305 308 310 311 309 306 303 302 303 309 318 330 338 341 344 345 346 345 344 344 344 344 344 344 344 345 345 346 346 346 345 345 344 343 342 342 341 341 340
156 160 164 165 163 160 162 166 169 168 164 163 161 159 159 160 162 166 170 173 175 176 176 178 184 192 198 201 203 207 213 218 224 230 236 240 247 253 259 264 271 277 283 289 294 298 302 306 309 312 313 311 307 304 302 303 306 314 326 335 338 339 341 342 341 341 341 341 342 342 342 342 343 343 344 344 344 344 343 342 341 340 340 339 339 338
157 158 161 165 165 163 161 165 171 171 166 163 163 164 162 160 159 160 164 168 172 173 173 171 172 179 190 198 203 207 215 223 230 235 238 239 244 249 256 261 267 274 281 287 292 295 300 305 309 312 314 311 308 306 304 302 304 310 321 330 333 334 335 335 335 335 336 338 339 340 340 340 341 342 342 342 342 341 341 340 339 338 337 337 337 336
155 157 157 160 163 164 163 166 171 172 168 164 163 166 167 166 164 162 163 168 172 175 174 174 172 172 177 191 203 209 215 226 237 243 245 247 248 250 254 258 264 271 278 284 289 293 298 303 308 310 310 307 305 303 302 300 301 306 317 323 325 326 327 328 327 328 330 333 336 338 339 339 339 340 340 340 340 339 338 338 337 336 335 335 334 334
154 157 158 158 159 159 160 165 169 170 167 165 165 170 177 178 175 170 170 170 171 174 177 178 180 180 180 184 194 205 211 220 231 240 242 244 245 246 248 255 262 271 279 287 292 295 300 304 307 307 304 301 298 297 295 294 296 301 310 315 317 319 321 322 322 324 326 329 332 334 335 336 337 338 338 338 337 337 336 335 334 333 333 332 332 331
156 158 159 159 159 159 158 160 162 166 170 173 175 179 182 184 180 174 172 169 170 173 176 178 182 186 191 194 196 198 200 208 222 233 235 235 234 234 236 245 257 271 282 293 298 300 303 307 307 305 300 295 291 289 288 287 290 295 302 306 310 312 315 317 319 321 323 326 328 330 331 332 333 334 335 335 335 334 333 332 331 331 330 330 329 329
155 157 158 160 162 163 163 163 164 168 176 181 182 181 181 183 181 176 170 167 170 176 177 176 180 187 193 198 201 201 199 199 209 226 235 234 231 228 226 230 244 260 275 288 294 297 302 306 305 302 296 290 284 281 279 279 281 285 292 298 303 306 309 312 315 318 320 323 325 327 328 329 330 331 331 332 331 331 330 329 329 328 328 327 327 326
158 159 161 164 166 168 168 169 170 174 177 179 179 178 179 180 180 178 174 170 174 178 178 176 181 192 200 202 202 203 201 193 187 195 224 237 234 228 223 225 236 254 269 280 288 294 299 301 299 295 290 282 275 271 269 269 271 274 282 291 296 300 303 307 311 314 318 320 322 324 325 326 327 328 329 329 328 328 327 326 326 325 325 324 324 324
163 163 165 167 168 169 171 172 172 173 175 176 177 175 172 173 176 178 177 173 174 175 174 175 179 193 212 217 214 209 203 187 182 189 205 233 233 227 221 219 227 248 267 277 286 292 296 297 295 290 284 277 272 269 266 265 264 267 275 284 290 294 298 302 307 312 315 317 319 321 323 323 325 326 326 326 326 325 324 324 323 323 322 322 322 322
165 167 168 167 166 168 171 172 171 171 173 176 176 174 172 172 174 176 175 173 172 173 176 180 182 185 197 214 223 221 210 195 186 186 195 223 229 223 218 215 215 229 260 277 284 288 292 293 291 287 281 275 271 268 264 261 261 262 269 278 285 290 294 299 304 308 312 315 317 318 320 321 322 323 323 323 323 322 321 321 321 320 320 320 320 320
167 169 168 166 165 167 170 171 171 173 175 175 174 173 173 174 175 175 175 174 174 175 181 187 191 191 184 174 217 228 213 201 189 184 197 220 227 222 214 214 217 227 251 274 284 287 289 289 287 284 279 274 269 264 260 257 256 257 263 271 280 286 291 297 301 304 307 311 314 315 317 318 319 320 320 320 320 319 319 318 318 318 318 318 318 318
168 170 169 166 165 167 169 172 173 174 174 173 172 171 171 174 176 177 177 178 179 181 184 188 193 193 179 153 199 220 213 203 188 181 212 216 225 224 210 212 219 231 250 272 283 286 287 287 284 282 278 272 265 258 253 251 250 252 258 266 275 282 288 294 297 300 303 306 310 312 314 315 316 317 317 317 317 317 316 316 316 316 316 316 317 317
167 169 169 167 165 165 169 175 177 177 175 175 173 171 169 172 175 176 179 182 185 187 188 188 185 179 170 165 194 212 211 201 187 187 221 216 223 223 211 213 223 239 259 273 282 287 289 288 285 282 277 268 259 250 244 243 244 247 255 264 273 280 286 289 293 296 299 302 305 308 311 312 313 314 314 314 314 313 314 314 314 315 315 315 315 315
166 169 172 173 169 166 170 176 180 180 178 176 173 170 170 171 172 174 179 182 184 185 185 181 177 174 175 171 194 208 203 195 185 195 231 227 224 224 223 224 238 260 277 281 287 292 294 292 288 283 276 265 252 241 234 234 238 248 259 269 276 281 284 287 290 293 295 299 302 305 307 308 309 310 310 310 310 310 310 311 311 311 312 313 313 313
170 172 176 178 175 172 172 176 179 180 180 178 174 169 170 170 170 172 177 179 178 176 174 171 175 181 183 184 197 204 196 193 185 184 226 230 214 221 242 246 263 284 296 296 298 302 302 297 291 284 274 261 245 231 224 225 235 258 274 281 282 283 284 286 288 291 294 297 300 303 304 305 305 306 307 307 307 307 307 308 308 308 309 309 309 309
177 177 178 178 176 175 176 177 178 179 181 179 177 174 175 174 173 172 174 173 171 170 172 177 184 189 191 194 197 197 194 191 188 190 212 232 196 211 256 268 288 302 306 306 309 312 311 303 294 285 273 256 237 222 216 221 242 278 292 292 289 286 285 287 289 292 294 297 299 301 302 303 303 303 304 304 304 305 306 306 307 307 307 307 307 307
184 183 181 178 178 178 178 177 177 177 178 178 178 179 180 178 177 175 175 175 174 174 176 178 179 181 187 193 199 200 199 192 183 181 197 230 219 224 259 280 299 310 306 308 313 318 317 308 297 286 273 252 229 215 213 223 253 290 300 297 292 288 288 290 294 297 298 299 300 301 301 301 302 302 302 303 303 304 305 305 306 307 307 307 306 306
183 181 179 179 180 181 180 178 177 177 177 178 179 180 180 180 180 180 179 177 174 170 164 156 154 159 169 180 196 210 214 209 195 182 182 220 231 242 264 289 305 313 309 313 318 322 318 308 298 287 273 249 224 213 213 227 261 293 302 300 293 289 289 295 300 303 305 305 305 304 303 302 301 300 300 301 301 302 303 304 305 306 306 306 307 308
173 171 171 173 175 176 177 177 177 178 179 181 180 179 178 178 176 173 169 167 164 158 151 154 163 169 167 170 181 203 224 229 218 196 186 205 226 248 269 298 313 316 313 315 320 321 314 302 289 278 267 245 222 211 213 232 268 296 303 300 294 290 293 300 306 311 313 313 311 308 306 303 302 300 300 300 300 301 303 304 305 305 306 307 308 310
162 163 163 164 165 167 169 170 172 175 177 179 179 178 175 170 163 158 155 159 159 157 161 170 171 165 165 170 176 195 226 239 229 202 187 191 212 244 267 301 315 319 316 314 317 317 310 291 267 254 249 235 217 209 215 242 279 299 303 300 294 293 297 305 312 317 319 319 317 314 310 307 304 302 301 300 301 302 303 304 305 306 307 309 311 313
155 157 157 157 158 160 162 164 166 168 171 172 172 170 166 161 156 154 160 164 162 161 171 173 168 162 163 164 169 191 228 242 229 204 187 178 212 243 268 303 318 323 319 313 314 316 311 290 260 241 232 221 211 210 224 260 289 301 303 300 295 294 300 308 316 321 324 324 322 318 314 310 307 304 303 302 303 304 305 306 308 309 310 312 314 314
146 148 149 150 152 154 156 159 162 166 168 168 166 161 158 158 159 164 169 169 165 163 169 169 166 160 156 154 167 196 223 235 224 206 192 177 218 241 278 310 322 329 328 319 313 307 298 293 269 240 222 209 206 218 246 279 296 303 304 300 297 299 305 313 320 325 328 328 325 322 317 313 310 307 305 305 305 306 307 309 311 312 314 315 314 313
142 144 146 150 152 152 151 154 158 165 170 173 171 165 160 162 166 173 177 175 170 166 169 165 161 158 153 155 169 188 198 214 216 213 203 202 223 245 281 305 318 326 336 331 315 284 259 284 274 242 216 213 226 252 277 293 302 306 308 307 307 309 314 321 326 329 331 330 328 324 321 317 313 310 308 307 307 308 310 312 315 316 317 316 314 312
144 147 151 154 156 157 156 155 155 159 166 175 179 178 173 173 175 180 185 183 177 173 171 167 167 167 163 164 170 174 171 197 210 218 221 196 209 246 273 286 296 311 329 342 325 296 266 269 264 254 248 258 273 286 294 301 306 309 312 314 315 318 321 326 329 330 331 331 329 327 324 321 318 314 311 309 308 309 311 314 317 318 317 316 314 311
152 155 159 161 163 164 163 161 159 160 166 174 183 189 191 190 190 192 192 189 186 182 179 175 176 176 177 182 192 176 153 204 218 228 233 207 204 233 259 269 272 285 301 310 286 279 289 283 272 271 277 281 287 291 296 300 304 308 311 313 314 316 320 325 327 328 328 329 328 328 326 324 321 318 315 312 311 311 313 315 317 318 316 314 312 309
161 164 166 168 170 171 171 171 171 172 175 182 190 199 205 206 206 206 204 199 195 192 189 184 181 181 184 191 195 185 169 213 230 238 237 217 207 220 245 255 256 261 271 267 256 254 260 272 280 283 284 283 285 287 290 293 296 301 305 308 308 310 315 320 322 323 324 325 326 326 326 325 323 321 318 316 314 313 313 314 315 315 313 311 308 307
165 168 171 173 176 178 180 182 183 186 190 195 202 208 213 215 215 214 212 209 205 201 197 193 189 185 184 188 192 193 193 211 232 241 236 213 205 219 236 243 247 250 254 256 253 253 257 263 273 283 288 289 287 285 283 284 288 293 298 302 304 307 311 315 317 317 319 321 322 323 324 324 323 321 319 317 315 313 312 312 312 312 310 307 305 304
165 168 172 175 178 181 184 187 191 194 198 204 209 213 215 216 215 215 214 213 211 209 207 204 202 198 192 186 184 183 182 204 227 238 233 214 210 223 236 238 239 240 247 251 255 259 264 267 273 281 289 293 291 284 278 277 282 289 295 300 304 307 309 312 312 312 313 315 316 317 319 320 320 318 317 314 313 311 311 311 311 310 309 306 303 300
165 168 172 174 176 178 182 187 191 195 200 205 209 212 213 213 213 214 215 216 216 215 214 213 213 211 208 201 193 181 174 200 225 235 233 223 221 227 234 238 237 237 243 252 257 263 271 277 280 282 285 288 288 286 279 276 281 288 293 297 300 302 303 305 306 306 306 307 309 310 313 314 314 313 313 312 311 311 312 311 311 310 307 304 301 298
169 173 177 178 178 178 180 186 191 194 198 204 208 211 211 210 211 213 216 218 219 220 221 221 222 221 219 216 210 203 199 209 225 235 236 234 231 230 233 239 241 240 243 249 258 266 274 282 285 285 282 279 280 284 286 287 288 289 289 291 293 294 296 298 300 300 300 302 304 305 307 308 308 309 310 311 312 313 312 311 308 306 303 301 300 299
176 180 183 185 185 183 184 188 193 196 198 202 206 209 211 210 211 214 217 220 222 224 226 228 231 232 230 227 223 220 219 222 228 234 239 240 239 238 237 242 246 245 245 248 254 262 271 278 283 285 283 281 280 282 287 290 292 291 290 291 292 293 293 293 294 295 295 297 299 300 301 302 305 307 309 311 312 311 309 306 305 303 301 301 301 301
182 183 187 190 190 189 187 189 193 197 199 202 206 210 211 211 213 216 220 223 225 228 231 234 238 243 244 242 239 236 235 235 236 239 242 244 245 245 242 244 247 248 248 249 251 254 259 265 271 277 283 286 288 288 289 289 290 292 295 297 296 293 290 289 288 289 291 293 294 295 297 299 302 305 305 306 306 304 304 303 302 302 302 302 303 302
184 185 187 191 192 192 191 192 196 201 203 207 210 212 212 212 214 218 223 228 232 235 239 243 247 251 254 255 254 252 251 250 249 249 249 249 250 250 249 247 246 247 249 250 251 251 252 256 262 268 274 280 285 288 289 288 289 292 297 299 297 292 290 289 288 288 289 289 290 292 295 297 299 300 300 300 299 299 299 300 300 301 301 300 300 301
184 184 186 188 190 193 196 201 204 206 206 207 209 211 212 212 214 219 225 232 238 243 247 251 255 260 265 267 265 264 263 262 261 260 258 257 255 254 252 250 248 248 248 250 252 253 252 255 260 266 270 274 279 282 284 284 286 289 292 291 290 290 292 291 290 288 286 285 286 289 293 296 297 297 296 295 295 295 296 296 297 297 298 295 294 294
187 188 188 188 193 199 204 205 204 205 205 207 209 211 212 212 211 213 218 225 233 240 245 247 249 253 260 267 270 271 271 269 268 266 264 262 259 257 254 252 250 249 248 250 253 255 255 256 258 262 267 272 277 281 282 283 284 286 286 285 289 294 296 293 289 286 285 285 288 291 294 295 295 295 295 294 293 294 295 295 294 293 293 290 288 287
192 191 189 194 201 204 203 202 203 204 205 207 209 211 213 212 210 207 208 211 216 223 229 234 238 243 249 253 258 264 269 272 271 268 266 263 261 258 255 253 250 249 249 249 252 255 258 258 257 258 263 267 272 276 279 283 285 286 285 285 289 295 296 294 293 292 290 290 292 293 294 294 293 293 293 293 293 295 296 295 292 290 289 286 284 284
190 192 198 204 205 203 202 204 207 209 210 210 210 213 216 216 214 210 209 211 214 217 224 234 243 251 256 257 254 251 254 270 273 271 266 264 261 259 256 254 252 251 249 248 248 251 256 258 258 259 263 265 268 272 276 280 283 285 284 284 285 284 283 288 293 296 295 294 294 294 293 294 295 295 295 294 294 294 294 292 290 288 287 285 283 282
191 201 211 213 207 202 206 211 214 214 214 212 211 216 222 222 219 215 213 214 216 219 225 235 244 250 250 245 241 236 238 258 271 275 271 267 263 260 258 255 252 251 250 249 248 249 252 255 259 262 264 265 266 268 272 277 281 283 283 283 283 282 281 283 288 292 294 294 294 295 295 297 298 299 298 297 296 294 292 291 290 288 287 286 284 282
203 211 216 214 209 207 213 217 218 218 218 214 212 216 223 225 223 220 217 216 216 220 227 233 236 239 242 240 234 227 228 238 251 263 269 268 265 263 260 257 255 252 251 251 252 252 251 251 255 261 266 268 268 266 267 271 276 280 281 283 284 284 284 285 287 290 292 293 295 296 299 301 301 300 298 297 296 295 293 291 289 288 288 287 284 282
209 213 217 215 213 212 215 218 220 221 220 216 214 218 225 227 225 222 219 219 219 221 227 232 235 236 238 239 235 229 226 225 228 235 244 254 259 261 261 260 260 259 258 258 257 258 257 256 256 257 260 264 267 268 267 269 271 274 278 283 286 286 287 287 288 291 292 293 294 297 302 305 304 301 299 298 297 296 294 292 290 289 288 287 285 283
209 211 214 215 215 213 215 219 221 221 218 214 214 220 227 229 225 221 219 220 221 221 224 227 230 233 235 236 234 232 229 228 227 226 224 233 243 250 254 257 259 262 264 265 265 264 264 264 262 259 256 256 259 264 268 269 269 270 275 280 284 286 286 287 290 293 294 294 295 298 302 303 303 302 302 301 299 297 295 294 293 291 289 288 286 284
209 208 210 213 213 213 214 218 220 218 213 210 211 217 226 228 225 218 215 216 218 219 223 224 226 229 233 232 232 231 230 231 233 231 227 228 234 240 243 246 249 254 260 265 267 269 270 270 267 264 259 254 253 256 263 267 268 270 273 277 279 282 284 288 292 295 296 297 297 299 301 300 299 299 300 299 297 296 296 296 295 293 291 290 288 286
210 208 208 211 211 211 211 214 215 214 210 207 206 209 215 219 218 216 214 214 216 218 221 222 223 226 230 230 228 225 224 226 229 230 226 225 227 230 232 237 243 250 259 263 265 268 269 269 269 267 264 258 253 251 255 261 267 271 273 275 277 280 285 290 294 297 299 300 300 301 301 299 298 298 297 295 295 295 296 296 295 295 294 293 291 289
210 210 210 210 211 211 211 212 213 212 209 206 204 203 203 204 206 209 210 212 214 217 220 222 223 224 226 227 224 222 222 222 222 222 220 219 219 220 223 229 235 244 255 261 262 261 259 264 266 263 258 254 252 250 250 254 263 272 276 277 280 284 288 291 294 297 299 300 301 301 301 300 298 297 295 294 294 295 295 296 295 295 296 296 296 294
Height
833 834 835 837 838 838 839 839 840 840 841 842 842 843 844 844 845 846 847 848 849 849 849 850 850 850 850 850 850 850 850 850 850 850 850 850 850 850 850 850 850 850 850 850 850 850 850 850 849 849 849 849 849 849 849 849 849 848 848 848 848 848 847 847 847 846 846 846 845 844 844 844 843 843 843 842 842 841 841 840 840 839 839 839 838 838
832 834 835 836 837 838 838 839 839 840 840 841 842 842 843 844 845 845 846 847 848 848 849 849 850 850 850 849 849 849 849 849 849 849 849 849 849 849 849 849 849 849 849 849 849 849 849 849 849 849 849 848 848 848 848 848 848 848 847 847 847 847 847 847 846 846 845 845 844 844 844 843 843 843 842 842 841 841 840 840 839 839 839 838 838 838
831 833 834 836 836 837 838 838 839 840 840 840 841 842 843 844 844 845 845 846 847 847 848 849 849 849 849 849 849 849 849 849 849 849 849 849 849 849 849 849 849 849 849 849 849 849 849 849 849 848 848 848 848 847 847 847 847 847 847 847 846 846 846 846 846 845 845 844 844 844 843 843 842 842 842 841 841 840 840 839 839 839 838 838 838 837
830 832 833 834 836 837 837 838 838 839 839 840 841 841 842 843 844 844 845 845 846 846 847 848 848 849 849 849 848 848 848 848 848 848 849 849 849 849 849 849 849 849 849 849 849 849 848 848 848 848 847 847 847 847 847 847 847 846 846 846 846 846 846 845 845 845 844 844 844 843 843 842 842 842 841 841 840 839 839 839 839 838 838 837 837 837
829 830 832 833 835 836 836 837 837 838 838 839 840 841 842 842 843 843 844 845 845 846 846 847 847 847 848 848 847 847 847 848 848 848 848 848 848 848 848 848 848 848 848 848 848 848 848 847 847 847 847 846 846 846 846 846 846 846 846 846 845 845 845 845 844 844 844 844 843 843 842 842 841 841 840 840 839 839 839 838 838 838 837 837 837 836
828 829 831 832 833 834 835 836 836 837 838 839 839 840 840 841 842 843 844 844 845 845 846 846 846 846 846 846 846 847 847 847 847 847 847 848 848 848 848 848 848 848 848 848 848 847 847 847 846 846 846 846 846 846 846 846 846 845 845 845 845 845 845 844 844 844 844 843 843 842 842 841 841 840 840 839 839 838 838 838 837 837 837 836 836 836
827 828 830 831 832 833 834 835 835 836 837 838 838 839 839 840 841 842 843 844 844 844 845 845 845 845 846 846 846 846 846 847 847 847 847 847 847 847 847 847 847 847 847 847 847 847 846 846 846 845 845 845 845 845 845 845 845 845 845 845 845 844 844 844 844 843 843 843 842 842 841 841 840 839 839 839 838 838 837 837 837 836 836 836 835 835
825 827 829 830 831 832 833 834 835 835 836 836 837 838 839 840 841 841 842 843 843 844 844 845 845 845 845 845 845 846 846 846 846 846 847 847 846 846 847 847 847 847 847 847 846 846 846 845 845 845 845 844 844 844 844 844 844 844 844 844 844 844 844 844 843 843 843 842 842 841 841 840 839 839 838 838 837 837 837 836 836 836 835 835 835 834
823 825 827 829 829 831 832 833 834 834 835 836 837 837 838 839 840 841 842 842 843 844 844 844 844 844 845 845 845 845 845 846 846 846 846 846 846 846 846 846 846 846 846 846 846 845 845 844 844 844 844 844 844 844 844 844 844 844 844 844 844 844 843 843 843 842 842 842 841 841 840 839 839 838 838 837 837 836 836 835 835 835 835 834 834 834
822 824 826 827 829 829 831 832 832 833 834 835 836 837 838 839 839 841 842 842 843 843 844 844 844 844 844 844 844 845 845 845 845 845 845 846 846 846 846 846 846 846 846 845 845 845 844 844 844 844 844 844 844 844 844 844 844 844 844 843 843 843 843 842 842 842 841 841 840 840 839 839 838 838 837 836 836 835 835 835 834 834 834 834 834 833
822 823 825 827 828 829 829 830 831 832 833 834 835 836 837 838 839 840 841 842 842 843 843 844 844 844 844 844 844 844 844 845 845 845 845 845 845 845 845 845 845 845 845 845 844 844 844 843 843 843 843 843 843 843 843 843 843 843 843 843 843 842 842 842 841 841 841 840 840 839 839 838 837 837 836 835 835 835 834 834 834 834 833 833 833 833
821 823 824 825 827 828 829 829 830 831 832 834 835 836 837 838 838 839 840 841 841 842 843 843 843 843 843 844 844 844 844 844 844 844 844 844 845 845 845 845 845 845 844 844 844 843 843 843 842 842 842 842 843 843 843 843 843 843 842 842 842 842 841 841 841 840 840 839 839 838 838 837 837 836 835 835 834 834 834 834 833 833 833 832 832 832
820 821 823 824 825 826 827 829 830 831 832 833 834 835 836 836 837 838 839 840 840 841 842 842 843 843 843 843 843 843 844 844 844 844 844 844 844 844 845 845 845 844 844 844 843 843 842 842 842 842 842 842 842 842 842 842 842 842 842 842 841 841 841 840 840 839 839 839 838 838 837 836 836 835 834 834 834 833 833 833 832 832 832 832 831 831
819 820 822 823 824 825 826 827 828 830 831 832 833 833 834 835 836 837 839 839 840 840 841 842 842 843 842 842 842 843 843 844 844 844 844 844 844 844 844 844 844 844 844 843 843 842 841 841 841 841 841 842 842 842 842 842 842 842 841 841 841 840 840 839 839 839 838 838 837 837 836 835 835 834 834 833 833 833 832 832 832 831 831 831 830 830
818 819 820 822 823 824 825 826 827 828 829 830 831 832 833 834 835 837 838 839 839 840 841 842 842 842 842 842 842 842 843 843 843 844 844 844 844 844 844 844 844 843 843 843 842 841 841 841 841 841 841 841 841 841 841 842 841 841 841 840 840 840 839 839 839 838 838 837 836 836 835 834 834 834 833 833 832 832 832 831 831 831 830 830 829 829
816 817 819 820 821 822 824 824 826 827 828 829 830 831 833 834 835 836 837 838 838 839 840 841 842 842 842 842 842 842 842 843 843 843 844 844 843 843 843 843 843 843 842 842 841 841 840 840 840 840 840 840 840 841 841 841 841 841 840 840 839 839 839 838 838 837 837 836 835 835 834 834 833 833 832 832 832 831 831 830 830 830 829 829 829 828
815 816 817 818 820 821 823 824 825 826 827 828 829 831 832 833 834 835 836 836 837 839 839 840 840 841 841 841 841 841 842 842 842 843 843 843 843 843 843 843 842 842 841 841 840 840 840 839 839 839 840 840 840 840 840 840 840 840 840 839 839 838 838 837 837 836 836 835 834 834 833 833 832 832 831 831 831 830 830 830 829 829 829 828 828 827
814 815 816 817 819 820 821 823 824 825 826 827 829 830 831 832 833 834 834 835 836 837 838 839 839 839 839 840 840 840 841 841 842 842 843 843 842 842 842 842 841 841 841 840 840 839 839 839 839 839 839 839 839 839 839 839 839 839 839 839 838 838 837 837 836 835 835 834 834 833 833 832 831 831 831 830 830 829 829 829 829 828 828 827 827 826
813 814 815 816 818 819 820 821 823 824 825 826 828 829 830 831 832 833 834 834 835 836 837 837 838 838 838 839 839 839 840 840 841 841 842 842 842 841 841 841 841 840 840 840 839 839 839 838 838 838 838 838 838 838 839 839 839 839 838 838 837 837 836 836 835 834 834 833 833 832 832 831 831 830 830 829 829 829 828 828 828 827 827 826 825 825
812 813 814 815 816 818 819 820 822 823 824 825 826 828 829 830 831 832 833 834 835 835 836 836 837 837 838 838 839 839 839 840 840 841 841 841 841 840 840 840 840 840 839 839 839 838 838 838 837 837 837 837 837 838 838 838 838 838 838 837 837 836 835 835 834 834 833 832 832 831 830 830 830 829 829 829 828 828 827 827 826 826 825 825 824 824
811 812 813 814 815 817 818 819 821 822 823 824 826 827 828 829 830 831 832 833 834 834 835 836 836 837 837 838 838 838 839 839 840 840 840 840 840 839 839 839 839 839 839 838 838 838 837 837 837 836 836 836 836 837 837 837 837 837 837 836 836 835 834 834 833 833 832 831 831 830 829 829 829 828 828 828 827 827 826 826 825 825 824 824 823 823
810 812 813 814 815 816 817 819 820 821 823 824 825 826 828 829 829 830 831 832 833 834 834 835 835 836 836 837 837 838 838 838 839 839 839 839 839 839 838 838 838 838 838 838 837 837 837 836 836 835 835 835 835 836 836 836 837 836 836 835 835 834 834 833 832 832 831 830 830 829 829 828 828 827 827 826 826 825 825 824 824 823 823 822 822 821
810 811 812 814 815 816 817 818 819 821 823 824 825 826 827 828 829 829 830 831 832 833 834 834 834 835 836 836 837 837 838 838 838 838 839 839 839 838 837 838 838 837 837 837 837 836 836 835 835 834 834 834 834 835 835 836 836 835 835 834 834 833 833 832 831 831 830 829 829 828 828 827 827 826 826 825 825 824 824 823 823 822 821 820 820 819
810 811 813 814 815 816 817 818 819 821 822 824 825 826 826 827 828 829 830 831 831 832 833 833 834 835 835 836 836 836 837 837 837 838 838 838 838 838 837 837 837 837 836 836 836 835 835 834 834 834 833 833 834 834 835 835 835 835 834 834 833 832 832 831 830 830 829 828 828 827 827 826 826 825 825 824 824 823 823 822 821 820 820 819 818 818
811 812 813 814 815 816 817 818 819 821 822 823 824 825 826 826 827 828 829 830 830 831 832 833 834 835 835 836 836 836 836 836 836 837 837 837 837 837 836 836 836 836 835 835 835 834 834 834 833 833 833 833 833 833 834 834 834 834 834 833 832 831 831 830 829 829 828 827 827 826 826 825 825 824 824 823 823 822 821 821 820 819 819 818 817 816
811 812 813 814 815 817 818 819 820 821 822 823 824 824 825 826 827 828 829 829 830 831 832 833 834 834 834 835 835 835 835 835 835 836 836 837 837 836 836 835 835 835 835 834 834 834 833 833 833 833 832 832 832 833 833 834 833 833 833 832 831 830 830 829 829 828 827 826 826 825 825 824 824 823 823 822 821 821 820 819 819 818 817 816 815 814
812 813 814 815 816 817 818 819 820 821 822 823 823 824 824 825 826 827 828 829 829 830 831 832 833 833 834 834 834 834 834 834 834 835 835 835 836 836 835 835 835 834 834 834 833 833 833 832 832 832 832 832 832 832 833 833 833 832 831 831 830 829 829 829 828 827 826 826 825 824 824 823 823 822 821 821 820 820 819 818 818 817 816 815 814 814
813 814 814 815 816 817 818 819 820 821 822 823 823 824 824 825 826 827 827 828 829 829 830 831 831 832 833 833 834 834 834 834 834 834 834 834 835 835 835 834 834 834 834 833 832 832 832 832 832 831 831 831 831 832 832 832 832 831 830 829 829 829 828 828 827 826 825 825 824 823 823 822 822 821 820 820 819 819 818 817 816 816 815 814 813 813
813 814 815 816 817 818 819 820 821 821 822 822 823 823 824 825 826 826 827 827 828 829 829 830 830 831 831 832 833 833 833 833 833 833 834 834 834 834 834 834 834 833 833 833 832 832 831 831 831 831 831 831 831 831 831 831 830 829 829 828 828 828 827 826 826 825 824 824 823 823 822 821 821 820 819 819 818 818 817 816 815 814 814 813 812 812
814 814 815 816 817 818 819 820 821 822 822 822 822 823 823 824 825 825 825 826 827 828 829 829 829 830 831 831 832 832 833 832 832 832 833 833 834 834 833 833 833 833 833 833 832 832 831 831 830 830 830 831 831 831 830 830 829 828 828 827 827 826 826 825 824 824 823 823 822 821 821 820 819 819 818 818 817 817 816 815 814 814 813 812 812 811
814 815 815 816 817 818 819 820 821 822 822 822 822 823 823 824 824 824 825 825 826 827 828 828 829 829 830 830 831 831 831 831 831 831 832 833 833 833 833 833 833 833 833 833 833 832 831 831 830 830 830 830 830 829 829 828 828 827 827 826 825 825 824 824 823 823 822 822 821 820 820 819 819 818 817 817 816 815 815 814 814 813 812 812 811 810
814 815 815 816 817 818 819 819 820 821 821 822 822 822 822 823 823 824 824 824 825 826 827 827 828 828 829 829 829 830 830 830 830 831 831 832 832 832 832 832 832 832 832 832 833 833 832 831 830 830 830 829 829 828 828 827 827 826 825 825 824 824 824 823 822 822 821 820 820 819 819 818 817 817 816 815 815 814 814 814 813 812 812 811 810 809
814 814 815 816 817 818 818 819 819 820 820 821 821 821 821 822 822 823 823 824 824 825 826 826 827 828 828 829 829 829 830 829 829 830 830 831 831 831 831 832 832 832 832 832 832 832 832 831 830 829 829 828 828 827 826 826 825 825 824 824 824 823 823 822 821 821 820 819 819 818 817 817 816 815 815 814 814 813 813 812 812 812 811 810 809 808
814 814 815 816 817 817 818 818 819 819 819 820 820 820 821 821 821 822 822 823 824 824 825 826 826 827 828 828 829 829 829 829 829 829 829 830 830 830 831 831 831 832 832 832 832 831 831 830 830 829 828 827 827 826 826 825 824 824 824 823 823 822 822 821 821 820 819 819 818 817 816 815 815 814 814 813 812 812 811 811 811 810 810 809 809 808
814 814 815 816 816 817 817 818 818 819 819 819 819 820 820 820 821 821 822 822 823 824 824 824 825 826 827 828 828 829 829 829 828 828 828 829 829 830 830 830 831 831 831 831 831 831 830 829 829 828 828 827 826 825 825 824 824 823 823 822 822 821 821 820 820 819 818 818 817 816 815 814 814 813 813 812 811 811 810 810 809 809 809 808 808 807
813 814 815 815 816 816 817 817 817 818 818 819 819 819 819 820 820 820 821 822 822 823 823 824 824 825 826 826 827 828 828 828 827 827 827 828 828 829 829 830 830 830 830 830 830 830 829 829 828 827 827 826 825 824 824 824 823 823 822 822 821 821 820 819 819 818 818 817 816 815 814 814 813 812 811 811 810 809 809 808 808 807 807 807 806 806
813 814 814 814 815 815 816 816 817 817 817 818 818 818 819 819 819 820 820 821 821 822 822 823 824 824 824 825 826 826 827 827 826 826 826 827 827 828 829 829 829 829 829 829 829 829 828 828 827 826 826 825 824 824 823 823 823 822 822 821 821 820 819 819 818 817 817 816 815 814 814 813 812 811 810 809 809 808 807 807 806 806 806 805 804 804
812 813 813 814 814 814 815 815 816 816 817 817 817 818 818 818 819 819 819 820 820 821 822 822 823 823 824 824 824 825 825 825 825 825 825 826 826 827 827 828 828 828 828 828 828 828 828 827 826 825 824 824 823 823 823 822 822 821 821 820 820 819 818 818 817 817 816 815 814 814 813 812 811 810 809 809 808 807 806 806 805 805 804 804 803 802
811 812 812 812 813 813 814 814 815 815 816 816 816 817 817 818 818 819 819 819 820 820 821 821 822 822 822 823 823 823 824 824 824 824 824 824 825 825 826 826 826 827 827 827 827 827 827 826 826 825 824 823 822 822 822 821 821 820 820 819 819 818 818 817 817 816 815 814 814 813 812 811 810 809 809 808 807 806 806 805 804 804 803 802 801 800
810 811 811 811 812 813 813 814 814 814 815 815 815 816 816 817 817 818 818 819 819 819 820 820 821 821 821 821 822 822 822 823 823 823 823 823 824 824 824 825 825 825 825 825 825 825 825 825 824 824 824 823 822 821 821 820 820 820 819 819 818 817 817 816 815 815 814 813 813 812 811 810 809 809 808 807 806 805 805 804 803 802 802 801 800 799
809 810 810 811 811 812 812 812 813 813 814 814 815 815 816 816 817 817 818 818 818 819 819 819 820 820 820 820 820 821 821 821 821 821 822 822 822 822 823 823 823 824 824 824 824 824 824 824 823 823 823 822 821 821 820 819 819 819 819 818 817 816 815 815 814 814 813 812 812 811 810 809 809 808 807 806 805 804 804 803 802 801 800 800 799 798
808 809 809 810 810 810 811 811 812 812 813 814 814 814 815 815 816 817 817 818 818 818 819 819 819 820 820 820 820 820 820 820 820 820 820 820 820 821 821 821 822 822 822 822 822 822 822 822 822 822 821 821 821 820 819 818 818 818 818 817 816 815 814 813 813 813 812 811 810 810 809 809 808 807 806 805 804 803 802 801 800 800 799 798 798 797
807 808 808 809 809 809 810 810 811 812 812 813 814 814 814 815 815 816 817 817 818 818 818 819 819 819 819 820 820 819 819 818 818 819 819 819 819 819 819 820 820 820 821 821 821 821 821 821 821 820 820 820 820 819 818 817 817 816 816 816 815 814 813 812 812 811 811 810 809 809 808 807 806 805 804 804 803 802 801 800 799 799 798 797 797 796
806 807 807 807 808 809 809 810 810 811 811 812 813 813 814 814 814 815 816 817 817 817 818 818 818 818 819 819 819 819 818 817 817 817 817 817 817 818 818 818 819 819 819 819 820 820 820 819 819 819 819 819 819 818 817 816 815 815 815 814 814 814 813 811 811 810 809 809 808 808 807 806 805 804 803 802 801 800 799 799 798 797 797 796 795 794
805 806 806 806 807 808 809 809 809 810 810 811 812 812 812 813 814 814 815 816 816 817 817 817 817 818 818 817 817 817 817 817 816 816 816 816 816 816 816 817 817 817 818 818 818 818 819 819 818 818 818 818 817 817 816 815 814 814 813 813 813 812 811 810 809 809 808 807 807 806 806 805 804 803 802 801 800 799 798 797 797 796 795 794 794 793
804 804 805 805 806 807 807 808 808 809 809 810 811 811 811 812 813 814 814 815 815 816 816 816 816 817 816 816 816 816 816 816 816 815 815 815 815 815 815 815 816 816 816 816 816 817 817 817 817 817 817 817 816 815 814 814 814 813 812 812 811 810 810 809 809 808 807 806 806 805 804 804 803 802 801 799 798 797 797 796 795 794 794 793 792 791
803 803 804 804 805 806 806 807 807 808 809 809 810 810 810 811 812 813 813 814 814 815 815 815 815 815 815 815 815 815 815 815 815 815 815 815 814 814 814 814 814 814 815 815 815 815 815 815 815 815 816 815 815 814 813 813 813 812 811 810 810 809 809 808 807 807 806 805 805 804 803 803 802 801 799 798 797 796 795 794 794 793 792 791 791 790
802 802 803 803 804 804 805 806 806 807 808 808 809 809 809 810 811 811 812 813 813 814 814 814 814 814 814 814 814 814 814 814 814 814 814 814 814 814 814 814 814 814 814 814 814 814 814 814 814 814 814 814 813 812 811 811 811 811 810 809 809 808 808 807 806 806 805 804 804 803 802 802 801 800 798 797 795 794 793 793 792 791 791 790 789 789
800 801 801 802 803 804 804 804 805 806 807 808 808 809 809 809 810 810 811 812 812 812 812 812 812 812 812 812 812 813 813 813 813 813 814 814 814 814 814 814 814 814 814 813 813 813 813 812 812 811 811 812 811 811 810 810 810 809 809 809 808 807 806 806 805 804 804 804 803 802 801 801 800 799 798 796 794 793 792 791 790 790 789 789 788 787
799 800 800 801 802 802 803 803 804 805 806 807 807 808 808 808 809 809 810 810 811 811 811 811 811 811 811 811 811 811 812 812 812 812 813 813 813 813 813 813 813 813 813 813 813 813 812 811 810 809 809 809 809 809 809 809 809 808 808 808 807 806 806 805 804 804 803 802 802 801 800 799 799 798 797 796 794 792 790 789 789 788 788 787 787 786
798 798 799 800 800 801 802 802 803 804 804 805 806 807 807 807 808 808 809 809 809 809 809 809 809 810 810 810 810 810 811 811 811 812 812 812 812 812 812 812 813 813 813 813 813 812 812 811 809 808 807 807 807 808 808 808 808 807 807 806 806 806 805 804 803 803 802 801 801 800 799 798 798 797 796 795 793 791 789 788 787 787 786 786 785 784